sat.trackr.live / text

‹ back to catalog

STARLINK-37371

NORAD 68977 · 2026-099AC

PAYLOAD ACTIVE UNKNOWN

§ Identity

Operator
Country
US
Launch date
2026-05-01
Launch site
AFETR
Launch vehicle
Mass (kg)
RCS (m²)

Purposes: comms

External: N2YO · Heavens-Above · Gunter

§ Orbital elements

Epoch: 2026-05-25T04:00:03.998880Z

Period
91.66 min
Inclination
53.1599°
Eccentricity
0.0001002
Mean motion
15.70944036 rev/d
Perigee alt
355.5 km
Apogee alt
356.9 km
Semi-major
6,734.3 km
B*
-1.6899e-2
RAAN
269.7945°
Arg perigee
58.4160°
Mean anomaly
8.8996°
Rev number
496

§ Raw data

STARLINK-373711 68977U 26099AC  26145.16671295 -.01912971  00000+0 -16899-1 0  99932 68977  53.1599 269.7945 0001002  58.4160   8.8996 15.70944036  4968

JSON: /api/v1/satellites/68977 · /tle

For live sub-satellite position, see the globe view (requires WebGL).

§ Visibility from observer

Set your observer location to see the next 7 days of passes ≥ 10°. The values pass through the URL so the page stays shareable.

No JS? Fill the form by hand. The geolocation button needs JavaScript.